Time,TemperatureF,DewpointF,PressureIn,WindDirection,WindDirectionDegrees,WindSpeedMPH,WindSpeedGustMPH,Humidity,HourlyPrecipIn,Conditions,Clouds,dailyrainin,SoftwareType,DateUTC
2013-01-18 00:00:00,37.6,36.0,30.05,North,0,0.0,0.4,94,0.00,,,1.99,WUHU216HW,2013-01-18 05:00:00,
2013-01-18 00:01:00,37.6,36.0,30.05,North,0,0.2,0.4,94,0.00,,,0.00,WUHU216HW,2013-01-18 05:01:00,
2013-01-18 00:02:00,37.6,36.0,30.05,North,0,0.2,0.4,94,0.00,,,0.00,WUHU216HW,2013-01-18 05:02:00,
2013-01-18 00:07:00,37.4,35.8,30.06,North,0,0.0,0.4,94,0.00,,,0.00,WUHU216HW,2013-01-18 05:07:00,
2013-01-18 00:12:00,37.3,35.6,30.06,North,0,0.0,0.4,94,0.00,,,0.00,WUHU216HW,2013-01-18 05:12:00,
2013-01-18 00:17:00,36.9,35.3,30.06,North,0,0.0,0.2,94,0.00,,,0.00,WUHU216HW,2013-01-18 05:17:00,
2013-01-18 00:22:00,36.5,34.9,30.07,North,0,0.2,0.2,94,0.00,,,0.00,WUHU216HW,2013-01-18 05:22:00,
2013-01-18 00:27:00,36.4,34.7,30.07,North,0,0.0,0.2,94,0.00,,,0.00,WUHU216HW,2013-01-18 05:27:00,
2013-01-18 00:32:00,36.0,34.4,30.08,North,0,0.0,0.0,94,0.00,,,0.00,WUHU216HW,2013-01-18 05:32:00,
2013-01-18 00:37:00,35.8,34.2,30.07,WNW,293,1.1,1.1,94,0.00,,,0.00,WUHU216HW,2013-01-18 05:37:00,
2013-01-18 00:42:00,36.0,34.4,30.08,SW,225,1.3,1.3,94,0.00,,,0.00,WUHU216HW,2013-01-18 05:42:00,
2013-01-18 00:47:00,36.0,34.4,30.08,SW,225,0.4,1.3,94,0.00,,,0.00,WUHU216HW,2013-01-18 05:47:00,
2013-01-18 00:52:00,35.8,34.2,30.09,SW,225,0.0,1.1,94,0.00,,,0.00,WUHU216HW,2013-01-18 05:52:00,
2013-01-18 00:57:00,35.6,34.0,30.09,NNW,338,0.7,0.7,94,0.00,,,0.00,WUHU216HW,2013-01-18 05:57:00,
2013-01-18 01:02:00,35.6,34.0,30.09,NNW,338,1.3,1.3,94,0.00,,,0.00,WUHU216HW,2013-01-18 06:02:00,
2013-01-18 01:07:00,35.6,34.0,30.09,NNW,338,0.4,1.6,94,0.00,,,0.00,WUHU216HW,2013-01-18 06:07:00,
2013-01-18 01:12:00,35.6,34.0,30.10,NW,315,1.1,1.6,94,0.00,,,0.00,WUHU216HW,2013-01-18 06:12:00,
2013-01-18 01:17:00,35.6,34.0,30.09,North,0,0.7,1.6,94,0.00,,,0.00,WUHU216HW,2013-01-18 06:17:00,
2013-01-18 01:22:00,35.6,34.0,30.09,NNW,338,1.1,2.5,94,0.00,,,0.00,WUHU216HW,2013-01-18 06:22:00,
2013-01-18 01:27:00,35.6,34.0,30.09,WNW,293,1.1,2.5,94,0.00,,,0.00,WUHU216HW,2013-01-18 06:27:00,
2013-01-18 01:32:00,35.6,34.0,30.10,WNW,293,1.3,2.7,94,0.00,,,0.00,WUHU216HW,2013-01-18 06:32:00,
2013-01-18 01:37:00,35.5,33.8,30.10,SSW,203,0.2,2.7,94,0.00,,,0.00,WUHU216HW,2013-01-18 06:37:00,
2013-01-18 01:42:00,35.5,33.8,30.11,NW,315,2.2,3.8,94,0.00,,,0.00,WUHU216HW,2013-01-18 06:42:00,
2013-01-18 01:47:00,35.5,33.8,30.11,WSW,248,1.3,3.8,94,0.00,,,0.00,WUHU216HW,2013-01-18 06:47:00,
2013-01-18 01:52:00,35.5,33.6,30.11,NNW,338,1.6,4.7,93,0.00,,,0.00,WUHU216HW,2013-01-18 06:52:00,
2013-01-18 01:57:00,35.5,33.6,30.12,NW,315,1.6,4.7,93,0.00,,,0.00,WUHU216HW,2013-01-18 06:57:00,
2013-01-18 02:02:00,35.3,33.1,30.13,NW,315,2.0,2.0,92,0.00,,,0.00,WUHU216HW,2013-01-18 07:02:00,
2013-01-18 02:07:00,35.1,32.9,30.13,West,270,2.2,2.2,92,0.00,,,0.00,WUHU216HW,2013-01-18 07:07:00,
2013-01-18 02:12:00,35.1,32.9,30.13,NNE,23,0.4,2.2,92,0.00,,,0.00,WUHU216HW,2013-01-18 07:12:00,
2013-01-18 02:17:00,35.1,32.9,30.13,NNE,23,0.2,1.8,92,0.00,,,0.00,WUHU216HW,2013-01-18 07:17:00,
2013-01-18 02:22:00,35.1,32.7,30.13,NNW,338,1.1,1.8,91,0.00,,,0.00,WUHU216HW,2013-01-18 07:22:00,
2013-01-18 02:27:00,35.1,32.4,30.13,ENE,68,4.7,4.7,90,0.00,,,0.00,WUHU216HW,2013-01-18 07:27:00,
2013-01-18 02:32:00,35.3,32.3,30.13,North,0,4.0,4.7,89,0.00,,,0.00,WUHU216HW,2013-01-18 07:32:00,
2013-01-18 02:37:00,35.5,31.9,30.13,NNE,23,1.1,5.4,87,0.00,,,0.00,WUHU216HW,2013-01-18 07:37:00,
2013-01-18 02:42:00,35.6,31.8,30.13,North,0,1.1,5.4,86,0.00,,,0.00,WUHU216HW,2013-01-18 07:42:00,
2013-01-18 02:47:00,35.6,31.5,30.13,NNE,23,0.4,3.8,85,0.00,,,0.00,WUHU216HW,2013-01-18 07:47:00,
2013-01-18 02:52:00,35.3,31.4,30.14,NNW,338,0.2,3.8,86,0.00,,,0.00,WUHU216HW,2013-01-18 07:52:00,
2013-01-18 02:57:00,35.1,31.2,30.14,ENE,68,0.4,1.6,86,0.00,,,0.00,WUHU216HW,2013-01-18 07:57:00,
2013-01-18 03:02:00,34.9,31.1,30.14,North,0,1.1,2.5,86,0.00,,,0.00,WUHU216HW,2013-01-18 08:02:00,
2013-01-18 03:07:00,34.9,31.1,30.14,NNE,23,0.9,2.5,86,0.00,,,0.00,WUHU216HW,2013-01-18 08:07:00,
2013-01-18 03:12:00,34.9,30.8,30.14,NE,45,0.2,1.8,85,0.00,,,0.00,WUHU216HW,2013-01-18 08:12:00,
2013-01-18 03:17:00,34.9,31.1,30.14,NNW,338,0.4,1.8,86,0.00,,,0.00,WUHU216HW,2013-01-18 08:17:00,
2013-01-18 03:22:00,34.7,30.9,30.14,NNE,23,1.6,1.6,86,0.00,,,0.00,WUHU216HW,2013-01-18 08:22:00,
2013-01-18 03:27:00,34.7,30.6,30.14,NNW,338,1.1,1.6,85,0.00,,,0.00,WUHU216HW,2013-01-18 08:27:00,
2013-01-18 03:32:00,34.7,30.6,30.14,North,0,1.3,1.3,85,0.00,,,0.00,WUHU216HW,2013-01-18 08:32:00,
2013-01-18 03:37:00,34.7,30.6,30.15,NNW,338,0.9,1.3,85,0.00,,,0.00,WUHU216HW,2013-01-18 08:37:00,
2013-01-18 03:42:00,34.4,30.5,30.15,WSW,248,1.1,1.1,86,0.00,,,0.00,WUHU216HW,2013-01-18 08:42:00,
2013-01-18 03:47:00,34.2,30.3,30.15,West,270,0.4,1.1,86,0.00,,,0.00,WUHU216HW,2013-01-18 08:47:00,
2013-01-18 03:52:00,34.0,30.2,30.15,West,270,0.0,0.9,86,0.00,,,0.00,WUHU216HW,2013-01-18 08:52:00,
2013-01-18 03:57:00,33.8,30.0,30.15,WNW,293,0.2,0.9,86,0.00,,,0.00,WUHU216HW,2013-01-18 08:57:00,
2013-01-18 04:02:00,33.8,30.0,30.15,WNW,293,0.0,0.4,86,0.00,,,0.00,WUHU216HW,2013-01-18 09:02:00,
2013-01-18 04:07:00,33.7,29.8,30.15,WNW,293,0.0,0.4,86,0.00,,,0.00,WUHU216HW,2013-01-18 09:07:00,
2013-01-18 04:12:00,33.5,29.7,30.15,WNW,293,0.4,0.7,86,0.00,,,0.00,WUHU216HW,2013-01-18 09:12:00,
2013-01-18 04:17:00,33.3,29.8,30.15,WNW,293,0.2,0.7,87,0.00,,,0.00,WUHU216HW,2013-01-18 09:17:00,
2013-01-18 04:22:00,33.5,29.7,30.14,NW,315,0.2,1.1,86,0.00,,,0.00,WUHU216HW,2013-01-18 09:22:00,
2013-01-18 04:27:00,33.5,29.7,30.15,WNW,293,0.2,1.1,86,0.00,,,0.00,WUHU216HW,2013-01-18 09:27:00,
2013-01-18 04:32:00,33.3,29.5,30.15,WNW,293,0.4,0.4,86,0.00,,,0.00,WUHU216HW,2013-01-18 09:32:00,
2013-01-18 04:37:00,32.9,29.2,30.15,West,270,0.7,1.6,86,0.00,,,0.00,WUHU216HW,2013-01-18 09:37:00,
2013-01-18 04:42:00,32.6,29.2,30.14,West,270,0.2,1.6,87,0.00,,,0.00,WUHU216HW,2013-01-18 09:42:00,
2013-01-18 04:47:00,32.4,29.3,30.15,WSW,248,0.0,0.7,88,0.00,,,0.00,WUHU216HW,2013-01-18 09:47:00,
2013-01-18 04:52:00,32.4,29.3,30.16,NNW,338,0.0,0.7,88,0.00,,,0.00,WUHU216HW,2013-01-18 09:52:00,
2013-01-18 04:57:00,32.6,29.2,30.16,NNW,338,0.2,0.7,87,0.00,,,0.00,WUHU216HW,2013-01-18 09:57:00,
2013-01-18 05:02:00,32.8,29.4,30.17,NNW,338,0.0,0.7,87,0.00,,,0.00,WUHU216HW,2013-01-18 10:02:00,
2013-01-18 05:07:00,32.6,29.2,30.17,NNW,338,0.0,0.2,87,0.00,,,0.00,WUHU216HW,2013-01-18 10:07:00,
2013-01-18 05:12:00,32.4,29.0,30.17,NNW,338,0.0,0.2,87,0.00,,,0.00,WUHU216HW,2013-01-18 10:12:00,
2013-01-18 05:17:00,32.2,28.8,30.17,SW,225,1.1,1.1,87,0.00,,,0.00,WUHU216HW,2013-01-18 10:17:00,
2013-01-18 05:22:00,32.2,28.8,30.16,ENE,68,0.2,1.1,87,0.00,,,0.00,WUHU216HW,2013-01-18 10:22:00,
2013-01-18 05:27:00,32.2,28.8,30.16,NW,315,1.1,1.1,87,0.00,,,0.00,WUHU216HW,2013-01-18 10:27:00,
2013-01-18 05:32:00,32.6,28.9,30.17,NNE,23,0.9,1.8,86,0.00,,,0.00,WUHU216HW,2013-01-18 10:32:00,
2013-01-18 05:37:00,32.9,29.2,30.17,West,270,0.7,2.5,86,0.00,,,0.00,WUHU216HW,2013-01-18 10:37:00,
2013-01-18 05:42:00,33.1,29.1,30.16,NW,315,0.4,2.5,85,0.00,,,0.00,WUHU216HW,2013-01-18 10:42:00,
2013-01-18 05:47:00,32.9,28.9,30.17,NNW,338,0.4,0.4,85,0.00,,,0.00,WUHU216HW,2013-01-18 10:47:00,
2013-01-18 05:52:00,32.9,28.9,30.16,WSW,248,0.4,0.9,85,0.00,,,0.00,WUHU216HW,2013-01-18 10:52:00,
2013-01-18 05:57:00,32.8,28.7,30.16,North,0,0.0,1.1,85,0.00,,,0.00,WUHU216HW,2013-01-18 10:57:00,
2013-01-18 06:02:00,32.9,28.4,30.16,WNW,293,1.1,2.2,83,0.00,,,0.00,WUHU216HW,2013-01-18 11:02:00,
2013-01-18 06:07:00,33.3,28.6,30.17,NW,315,1.1,2.2,83,0.00,,,0.00,WUHU216HW,2013-01-18 11:07:00,
2013-01-18 06:12:00,33.3,28.6,30.17,NW,315,0.7,1.6,83,0.00,,,0.00,WUHU216HW,2013-01-18 11:12:00,
2013-01-18 06:17:00,33.3,28.6,30.17,WSW,248,0.9,1.1,83,0.00,,,0.00,WUHU216HW,2013-01-18 11:17:00,
2013-01-18 06:22:00,33.1,28.4,30.18,WNW,293,0.4,1.8,83,0.00,,,0.00,WUHU216HW,2013-01-18 11:22:00,
2013-01-18 06:27:00,32.9,28.4,30.18,NW,315,0.7,1.8,83,0.00,,,0.00,WUHU216HW,2013-01-18 11:27:00,
2013-01-18 06:32:00,32.8,28.4,30.18,NW,315,0.4,1.1,84,0.00,,,0.00,WUHU216HW,2013-01-18 11:32:00,
2013-01-18 06:37:00,32.4,28.1,30.19,NNW,338,0.9,0.9,84,0.00,,,0.00,WUHU216HW,2013-01-18 11:37:00,
2013-01-18 06:42:00,32.4,28.1,30.19,WSW,248,0.7,0.9,84,0.00,,,0.00,WUHU216HW,2013-01-18 11:42:00,
2013-01-18 06:47:00,32.4,28.1,30.19,North,0,0.4,0.7,84,0.00,,,0.00,WUHU216HW,2013-01-18 11:47:00,
2013-01-18 06:52:00,32.4,27.8,30.19,NE,45,0.2,0.7,83,0.00,,,0.00,WUHU216HW,2013-01-18 11:52:00,
2013-01-18 06:57:00,32.4,27.8,30.19,NNE,23,1.8,1.8,83,0.00,,,0.00,WUHU216HW,2013-01-18 11:57:00,
2013-01-18 07:02:00,32.4,27.8,30.19,NE,45,0.4,1.8,83,0.00,,,0.00,WUHU216HW,2013-01-18 12:02:00,
2013-01-18 07:07:00,32.2,27.6,30.20,WSW,248,0.4,1.1,83,0.00,,,0.00,WUHU216HW,2013-01-18 12:07:00,
2013-01-18 07:12:00,32.0,27.8,30.20,SW,225,0.0,0.4,84,0.00,,,0.00,WUHU216HW,2013-01-18 12:12:00,
2013-01-18 07:17:00,32.0,27.8,30.20,SW,225,0.2,0.7,84,0.00,,,0.00,WUHU216HW,2013-01-18 12:17:00,
2013-01-18 07:22:00,31.7,27.5,30.21,SW,225,0.0,0.7,84,0.00,,,0.00,WUHU216HW,2013-01-18 12:22:00,
2013-01-18 07:27:00,31.5,27.3,30.21,SW,225,0.0,0.2,84,0.00,,,0.00,WUHU216HW,2013-01-18 12:27:00,
2013-01-18 07:32:00,31.5,27.3,30.21,SW,225,0.0,0.2,84,0.00,,,0.00,WUHU216HW,2013-01-18 12:32:00,
2013-01-18 07:37:00,31.5,27.3,30.22,NE,45,0.0,1.1,84,0.00,,,0.00,WUHU216HW,2013-01-18 12:37:00,
2013-01-18 07:42:00,31.7,27.5,30.22,NE,45,0.0,1.1,84,0.00,,,0.00,WUHU216HW,2013-01-18 12:42:00,
2013-01-18 07:47:00,31.3,27.4,30.22,NE,45,0.2,0.4,85,0.00,,,0.00,WUHU216HW,2013-01-18 12:47:00,
2013-01-18 07:52:00,31.3,27.1,30.22,ENE,68,0.4,1.1,84,0.00,,,0.00,WUHU216HW,2013-01-18 12:52:00,
2013-01-18 07:57:00,31.3,27.1,30.22,ENE,68,0.4,1.1,84,0.00,,,0.00,WUHU216HW,2013-01-18 12:57:00,
2013-01-18 08:02:00,31.1,27.2,30.23,ENE,68,0.0,0.9,85,0.00,,,0.00,WUHU216HW,2013-01-18 13:02:00,
2013-01-18 08:07:00,31.1,27.5,30.24,ENE,68,0.0,0.9,86,0.00,,,0.00,WUHU216HW,2013-01-18 13:07:00,
2013-01-18 08:12:00,31.3,27.4,30.24,ENE,68,0.0,0.7,85,0.00,,,0.00,WUHU216HW,2013-01-18 13:12:00,
2013-01-18 08:17:00,31.5,27.5,30.24,ENE,68,0.0,0.7,85,0.00,,,0.00,WUHU216HW,2013-01-18 13:17:00,
2013-01-18 08:22:00,31.7,27.7,30.24,ENE,68,0.0,0.0,85,0.00,,,0.00,WUHU216HW,2013-01-18 13:22:00,
2013-01-18 08:27:00,31.3,27.6,30.25,ENE,68,0.0,0.4,86,0.00,,,0.00,WUHU216HW,2013-01-18 13:27:00,
2013-01-18 08:32:00,31.5,27.8,30.25,ENE,68,0.0,0.4,86,0.00,,,0.00,WUHU216HW,2013-01-18 13:32:00,
2013-01-18 08:37:00,31.7,28.0,30.25,NE,45,0.2,0.4,86,0.00,,,0.00,WUHU216HW,2013-01-18 13:37:00,
2013-01-18 08:42:00,32.0,28.4,30.26,NNE,23,0.4,0.7,86,0.00,,,0.00,WUHU216HW,2013-01-18 13:42:00,
2013-01-18 08:47:00,32.6,28.9,30.26,West,270,0.7,0.9,86,0.00,,,0.00,WUHU216HW,2013-01-18 13:47:00,
2013-01-18 08:52:00,32.9,28.9,30.26,WNW,293,2.2,2.2,85,0.00,,,0.00,WUHU216HW,2013-01-18 13:52:00,
2013-01-18 08:57:00,33.7,29.5,30.26,NNW,338,0.4,2.2,85,0.00,,,0.00,WUHU216HW,2013-01-18 13:57:00,
2013-01-18 09:02:00,34.2,29.8,30.27,WSW,248,0.2,1.8,84,0.00,,,0.00,WUHU216HW,2013-01-18 14:02:00,
2013-01-18 09:07:00,34.4,30.0,30.27,WNW,293,0.4,1.8,84,0.00,,,0.00,WUHU216HW,2013-01-18 14:07:00,
2013-01-18 09:12:00,34.7,30.3,30.28,NNW,338,0.4,1.6,84,0.00,,,0.00,WUHU216HW,2013-01-18 14:12:00,
2013-01-18 09:17:00,34.9,30.5,30.28,NNE,23,1.3,1.3,84,0.00,,,0.00,WUHU216HW,2013-01-18 14:17:00,
2013-01-18 09:22:00,35.3,30.6,30.29,NNE,23,0.0,1.3,83,0.00,,,0.00,WUHU216HW,2013-01-18 14:22:00,
2013-01-18 09:27:00,35.6,30.3,30.29,ENE,68,2.2,2.2,81,0.00,,,0.00,WUHU216HW,2013-01-18 14:27:00,
2013-01-18 09:32:00,36.5,30.3,30.29,NNE,23,1.1,3.4,78,0.00,,,0.00,WUHU216HW,2013-01-18 14:32:00,
2013-01-18 09:37:00,37.1,30.3,30.29,NNE,23,2.5,3.4,76,0.00,,,0.00,WUHU216HW,2013-01-18 14:37:00,
2013-01-18 09:42:00,37.4,30.6,30.30,NNE,23,1.1,4.0,76,0.00,,,0.00,WUHU216HW,2013-01-18 14:42:00,
2013-01-18 09:47:00,37.4,30.2,30.30,NNE,23,0.7,4.0,75,0.00,,,0.00,WUHU216HW,2013-01-18 14:47:00,
2013-01-18 09:52:00,37.6,30.4,30.31,NE,45,0.4,2.9,75,0.00,,,0.00,WUHU216HW,2013-01-18 14:52:00,
2013-01-18 09:57:00,37.8,30.2,30.31,ENE,68,1.3,2.9,74,0.00,,,0.00,WUHU216HW,2013-01-18 14:57:00,
2013-01-18 10:02:00,38.0,30.1,30.32,NNE,23,1.8,2.2,73,0.00,,,0.00,WUHU216HW,2013-01-18 15:02:00,
2013-01-18 10:07:00,38.5,30.0,30.32,NNE,23,0.7,3.6,71,0.00,,,0.00,WUHU216HW,2013-01-18 15:07:00,
2013-01-18 10:12:00,38.7,29.3,30.32,NE,45,2.9,4.9,69,0.00,,,0.00,WUHU216HW,2013-01-18 15:12:00,
2013-01-18 10:17:00,39.2,29.9,30.32,NE,45,0.4,4.9,69,0.00,,,0.00,WUHU216HW,2013-01-18 15:17:00,
2013-01-18 10:22:00,39.2,30.6,30.32,NNE,23,2.0,3.6,71,0.00,,,0.00,WUHU216HW,2013-01-18 15:22:00,
2013-01-18 10:27:00,39.2,30.2,30.32,NE,45,4.3,4.3,70,0.00,,,0.00,WUHU216HW,2013-01-18 15:27:00,
2013-01-18 10:32:00,39.6,30.3,30.32,NNW,338,0.7,4.3,69,0.00,,,0.00,WUHU216HW,2013-01-18 15:32:00,
2013-01-18 10:37:00,39.8,30.8,30.32,WSW,248,2.0,2.7,70,0.00,,,0.00,WUHU216HW,2013-01-18 15:37:00,
2013-01-18 10:42:00,40.0,31.3,30.32,NNE,23,1.8,2.7,71,0.00,,,0.00,WUHU216HW,2013-01-18 15:42:00,
2013-01-18 10:47:00,40.3,30.6,30.32,NNE,23,3.8,3.8,68,0.00,,,0.00,WUHU216HW,2013-01-18 15:47:00,
2013-01-18 10:52:00,40.7,30.5,30.33,NNE,23,2.5,3.8,67,0.00,,,0.00,WUHU216HW,2013-01-18 15:52:00,
2013-01-18 10:57:00,40.9,30.7,30.33,NNE,23,1.1,4.3,67,0.00,,,0.00,WUHU216HW,2013-01-18 15:57:00,
2013-01-18 11:02:00,41.4,30.5,30.33,NNE,23,2.2,5.4,65,0.00,,,0.00,WUHU216HW,2013-01-18 16:02:00,
2013-01-18 11:07:00,41.8,30.9,30.33,East,90,1.6,5.4,65,0.00,,,0.00,WUHU216HW,2013-01-18 16:07:00,
2013-01-18 11:12:00,42.1,31.1,30.33,ENE,68,1.6,3.6,65,0.00,,,0.00,WUHU216HW,2013-01-18 16:12:00,
2013-01-18 11:17:00,42.1,30.4,30.33,ENE,68,3.8,6.3,63,0.00,,,0.00,WUHU216HW,2013-01-18 16:17:00,
2013-01-18 11:22:00,42.3,30.6,30.33,NNE,23,1.1,6.3,63,0.00,,,0.00,WUHU216HW,2013-01-18 16:22:00,
2013-01-18 11:27:00,42.3,31.3,30.32,ENE,68,1.1,4.3,65,0.00,,,0.00,WUHU216HW,2013-01-18 16:27:00,
2013-01-18 11:32:00,42.3,30.6,30.33,ENE,68,1.8,3.1,63,0.00,,,0.00,WUHU216HW,2013-01-18 16:32:00,
2013-01-18 11:37:00,42.7,31.3,30.33,North,0,0.4,3.1,64,0.00,,,0.00,WUHU216HW,2013-01-18 16:37:00,
2013-01-18 11:42:00,42.8,31.9,30.33,SW,225,2.0,2.0,65,0.00,,,0.00,WUHU216HW,2013-01-18 16:42:00,
2013-01-18 11:47:00,42.8,32.2,30.33,East,90,0.7,2.0,66,0.00,,,0.00,WUHU216HW,2013-01-18 16:47:00,
2013-01-18 11:52:00,42.8,32.2,30.32,NNE,23,0.9,2.0,66,0.00,,,0.00,WUHU216HW,2013-01-18 16:52:00,
2013-01-18 11:57:00,43.4,32.0,30.32,NNE,23,0.4,2.5,64,0.00,,,0.00,WUHU216HW,2013-01-18 16:57:00,
2013-01-18 12:02:00,43.7,32.0,30.32,NE,45,2.9,2.9,63,0.00,,,0.00,WUHU216HW,2013-01-18 17:02:00,
2013-01-18 12:07:00,43.9,31.8,30.32,NNW,338,0.0,2.9,62,0.00,,,0.00,WUHU216HW,2013-01-18 17:07:00,
2013-01-18 12:12:00,44.1,33.0,30.32,NW,315,0.4,2.0,65,0.00,,,0.00,WUHU216HW,2013-01-18 17:12:00,
2013-01-18 12:17:00,44.1,33.0,30.32,NW,315,1.6,1.6,65,0.00,,,0.00,WUHU216HW,2013-01-18 17:17:00,
2013-01-18 12:22:00,44.3,34.0,30.32,WSW,248,1.8,1.8,67,0.00,,,0.00,WUHU216HW,2013-01-18 17:22:00,
2013-01-18 12:27:00,44.3,34.4,30.31,WSW,248,0.4,1.8,68,0.00,,,0.00,WUHU216HW,2013-01-18 17:27:00,
2013-01-18 12:32:00,44.5,33.4,30.31,North,0,2.5,2.5,65,0.00,,,0.00,WUHU216HW,2013-01-18 17:32:00,
2013-01-18 12:37:00,44.8,32.9,30.31,East,90,1.3,3.4,63,0.00,,,0.00,WUHU216HW,2013-01-18 17:37:00,
2013-01-18 12:42:00,45.0,32.1,30.31,NNE,23,2.5,3.4,60,0.00,,,0.00,WUHU216HW,2013-01-18 17:42:00,
2013-01-18 12:47:00,45.4,33.1,30.30,East,90,0.7,2.9,62,0.00,,,0.00,WUHU216HW,2013-01-18 17:47:00,
2013-01-18 12:52:00,45.7,32.7,30.31,ENE,68,2.7,2.7,60,0.00,,,0.00,WUHU216HW,2013-01-18 17:52:00,
2013-01-18 12:57:00,45.7,31.3,30.31,ENE,68,0.4,2.7,57,0.00,,,0.00,WUHU216HW,2013-01-18 17:57:00,
2013-01-18 13:02:00,46.1,32.0,30.30,East,90,0.2,2.5,58,0.00,,,0.00,WUHU216HW,2013-01-18 18:02:00,
2013-01-18 13:07:00,46.3,31.8,30.30,ENE,68,2.2,2.9,57,0.00,,,0.00,WUHU216HW,2013-01-18 18:07:00,
2013-01-18 13:12:00,46.6,32.1,30.30,NE,45,1.8,2.9,57,0.00,,,0.00,WUHU216HW,2013-01-18 18:12:00,
2013-01-18 13:17:00,46.8,31.9,30.30,NE,45,1.3,3.4,56,0.00,,,0.00,WUHU216HW,2013-01-18 18:17:00,
2013-01-18 13:22:00,46.8,32.3,30.29,WNW,293,0.4,3.4,57,0.00,,,0.00,WUHU216HW,2013-01-18 18:22:00,
2013-01-18 13:27:00,47.0,33.4,30.30,WNW,293,0.2,1.1,59,0.00,,,0.00,WUHU216HW,2013-01-18 18:27:00,
2013-01-18 13:32:00,47.2,34.4,30.30,SSW,203,0.2,2.0,61,0.00,,,0.00,WUHU216HW,2013-01-18 18:32:00,
2013-01-18 13:37:00,47.3,34.6,30.30,South,180,1.1,2.0,61,0.00,,,0.00,WUHU216HW,2013-01-18 18:37:00,
2013-01-18 13:42:00,47.5,34.7,30.29,NW,315,1.3,2.0,61,0.00,,,0.00,WUHU216HW,2013-01-18 18:42:00,
2013-01-18 13:47:00,47.7,34.9,30.29,SW,225,0.7,3.8,61,0.00,,,0.00,WUHU216HW,2013-01-18 18:47:00,
2013-01-18 13:52:00,47.7,33.2,30.29,NE,45,0.7,3.8,57,0.00,,,0.00,WUHU216HW,2013-01-18 18:52:00,
2013-01-18 13:57:00,48.1,34.0,30.30,South,180,1.3,2.5,58,0.00,,,0.00,WUHU216HW,2013-01-18 18:57:00,
2013-01-18 14:02:00,48.6,35.5,30.29,NW,315,0.4,2.5,60,0.00,,,0.00,WUHU216HW,2013-01-18 19:02:00,
2013-01-18 14:07:00,48.8,35.6,30.29,SW,225,1.1,1.8,60,0.00,,,0.00,WUHU216HW,2013-01-18 19:07:00,
2013-01-18 14:12:00,48.8,35.6,30.29,SSW,203,3.4,3.6,60,0.00,,,0.00,WUHU216HW,2013-01-18 19:12:00,
2013-01-18 14:17:00,49.3,36.1,30.29,ESE,113,0.0,3.6,60,0.00,,,0.00,WUHU216HW,2013-01-18 19:17:00,
2013-01-18 14:22:00,49.7,35.9,30.29,SW,225,2.5,3.4,59,0.00,,,0.00,WUHU216HW,2013-01-18 19:22:00,
2013-01-18 14:27:00,50.0,37.1,30.30,SSW,203,0.2,3.4,61,0.00,,,0.00,WUHU216HW,2013-01-18 19:27:00,
2013-01-18 14:32:00,50.0,35.8,30.30,ENE,68,0.0,2.0,58,0.00,,,0.00,WUHU216HW,2013-01-18 19:32:00,
2013-01-18 14:37:00,50.4,36.6,30.29,SW,225,2.0,2.0,59,0.00,,,0.00,WUHU216HW,2013-01-18 19:37:00,
2013-01-18 14:42:00,50.8,36.9,30.29,SSW,203,0.4,2.5,59,0.00,,,0.00,WUHU216HW,2013-01-18 19:42:00,
2013-01-18 14:47:00,51.1,37.3,30.29,SW,225,2.2,2.9,59,0.00,,,0.00,WUHU216HW,2013-01-18 19:47:00,
2013-01-18 14:52:00,51.1,35.9,30.29,South,180,2.0,4.7,56,0.00,,,0.00,WUHU216HW,2013-01-18 19:52:00,
2013-01-18 14:57:00,51.1,33.7,30.29,SSW,203,4.0,6.3,51,0.00,,,0.00,WUHU216HW,2013-01-18 19:57:00,
2013-01-18 15:02:00,51.5,35.7,30.29,NNW,338,0.2,6.3,55,0.00,,,0.00,WUHU216HW,2013-01-18 20:02:00,
2013-01-18 15:07:00,51.8,34.3,30.29,SW,225,2.5,6.7,51,0.00,,,0.00,WUHU216HW,2013-01-18 20:07:00,
2013-01-18 15:12:00,51.8,34.7,30.29,SSW,203,1.1,6.7,52,0.00,,,0.00,WUHU216HW,2013-01-18 20:12:00,
2013-01-18 15:17:00,52.2,36.0,30.29,ESE,113,0.0,4.5,54,0.00,,,0.00,WUHU216HW,2013-01-18 20:17:00,
2013-01-18 15:22:00,52.4,36.6,30.29,SSW,203,4.0,4.0,55,0.00,,,0.00,WUHU216HW,2013-01-18 20:22:00,
2013-01-18 15:27:00,52.6,35.4,30.29,SSW,203,5.8,5.8,52,0.00,,,0.00,WUHU216HW,2013-01-18 20:27:00,
2013-01-18 15:32:00,52.6,35.8,30.30,SE,135,0.4,5.8,53,0.00,,,0.00,WUHU216HW,2013-01-18 20:32:00,
2013-01-18 15:37:00,52.9,36.6,30.29,SE,135,0.4,5.8,54,0.00,,,0.00,WUHU216HW,2013-01-18 20:37:00,
2013-01-18 15:42:00,53.1,35.9,30.29,SSW,203,4.0,4.9,52,0.00,,,0.00,WUHU216HW,2013-01-18 20:42:00,
2013-01-18 15:47:00,52.9,36.6,30.30,SSW,203,2.0,4.9,54,0.00,,,0.00,WUHU216HW,2013-01-18 20:47:00,
2013-01-18 15:52:00,52.9,35.7,30.30,NW,315,0.2,3.4,52,0.00,,,0.00,WUHU216HW,2013-01-18 20:52:00,
2013-01-18 15:57:00,53.1,36.4,30.31,SSW,203,0.7,3.4,53,0.00,,,0.00,WUHU216HW,2013-01-18 20:57:00,
2013-01-18 16:02:00,53.3,36.6,30.31,SSW,203,0.0,2.7,53,0.00,,,0.00,WUHU216HW,2013-01-18 21:02:00,
2013-01-18 16:07:00,53.3,36.1,30.31,SW,225,2.5,2.5,52,0.00,,,0.00,WUHU216HW,2013-01-18 21:07:00,
2013-01-18 16:12:00,53.3,35.1,30.32,SW,225,4.5,5.4,50,0.00,,,0.00,WUHU216HW,2013-01-18 21:12:00,
2013-01-18 16:17:00,53.3,36.6,30.31,SSW,203,0.2,5.4,53,0.00,,,0.00,WUHU216HW,2013-01-18 21:17:00,
2013-01-18 16:22:00,53.3,36.6,30.32,SSW,203,0.0,1.3,53,0.00,,,0.00,WUHU216HW,2013-01-18 21:22:00,
2013-01-18 16:27:00,53.1,36.4,30.32,SSW,203,0.4,3.1,53,0.00,,,0.00,WUHU216HW,2013-01-18 21:27:00,
2013-01-18 16:32:00,52.9,36.6,30.31,South,180,0.4,3.1,54,0.00,,,0.00,WUHU216HW,2013-01-18 21:32:00,
2013-01-18 16:37:00,52.9,36.6,30.31,South,180,0.2,1.6,54,0.00,,,0.00,WUHU216HW,2013-01-18 21:37:00,
2013-01-18 16:42:00,52.7,35.6,30.32,SSE,158,0.2,1.6,52,0.00,,,0.00,WUHU216HW,2013-01-18 21:42:00,
2013-01-18 16:47:00,52.6,35.8,30.32,SSW,203,0.0,1.6,53,0.00,,,0.00,WUHU216HW,2013-01-18 21:47:00,
2013-01-18 16:52:00,52.4,35.7,30.32,SSE,158,0.0,1.1,53,0.00,,,0.00,WUHU216HW,2013-01-18 21:52:00,
2013-01-18 16:57:00,52.0,35.8,30.31,SSE,158,0.0,0.7,54,0.00,,,0.00,WUHU216HW,2013-01-18 21:57:00,
2013-01-18 17:02:00,51.7,35.5,30.32,East,90,0.9,0.9,54,0.00,,,0.00,WUHU216HW,2013-01-18 22:02:00,
2013-01-18 17:07:00,51.1,35.0,30.32,East,90,0.0,0.9,54,0.00,,,0.00,WUHU216HW,2013-01-18 22:07:00,
2013-01-18 17:12:00,50.6,34.9,30.32,East,90,0.0,0.2,55,0.00,,,0.00,WUHU216HW,2013-01-18 22:12:00,
2013-01-18 17:17:00,49.9,34.3,30.32,East,90,0.0,0.7,55,0.00,,,0.00,WUHU216HW,2013-01-18 22:17:00,
2013-01-18 17:22:00,49.3,33.8,30.31,East,90,0.0,0.7,55,0.00,,,0.00,WUHU216HW,2013-01-18 22:22:00,
2013-01-18 17:27:00,48.8,33.8,30.31,East,90,0.0,0.2,56,0.00,,,0.00,WUHU216HW,2013-01-18 22:27:00,
2013-01-18 17:32:00,48.2,33.2,30.31,East,90,0.0,0.0,56,0.00,,,0.00,WUHU216HW,2013-01-18 22:32:00,
2013-01-18 17:37:00,47.7,33.2,30.32,East,90,0.0,0.0,57,0.00,,,0.00,WUHU216HW,2013-01-18 22:37:00,
2013-01-18 17:42:00,47.3,32.9,30.32,East,90,0.0,0.0,57,0.00,,,0.00,WUHU216HW,2013-01-18 22:42:00,
2013-01-18 17:47:00,46.8,32.3,30.32,East,90,0.0,0.0,57,0.00,,,0.00,WUHU216HW,2013-01-18 22:47:00,
2013-01-18 17:52:00,46.3,31.8,30.32,East,90,0.0,0.4,57,0.00,,,0.00,WUHU216HW,2013-01-18 22:52:00,
2013-01-18 17:57:00,45.9,31.5,30.32,East,90,0.0,0.4,57,0.00,,,0.00,WUHU216HW,2013-01-18 22:57:00,
2013-01-18 18:02:00,45.5,31.1,30.32,East,90,0.7,0.7,57,0.00,,,0.00,WUHU216HW,2013-01-18 23:02:00,
2013-01-18 18:07:00,45.4,31.0,30.32,East,90,0.4,0.7,57,0.00,,,0.00,WUHU216HW,2013-01-18 23:07:00,
2013-01-18 18:12:00,45.0,30.7,30.31,East,90,0.4,0.4,57,0.00,,,0.00,WUHU216HW,2013-01-18 23:12:00,
2013-01-18 18:17:00,44.8,30.1,30.31,East,90,0.0,0.7,56,0.00,,,0.00,WUHU216HW,2013-01-18 23:17:00,
2013-01-18 18:22:00,44.5,29.7,30.31,East,90,0.0,0.7,56,0.00,,,0.00,WUHU216HW,2013-01-18 23:22:00,
2013-01-18 18:27:00,44.3,29.5,30.32,East,90,0.0,0.0,56,0.00,,,0.00,WUHU216HW,2013-01-18 23:27:00,
2013-01-18 18:32:00,43.9,29.6,30.32,East,90,0.0,0.2,57,0.00,,,0.00,WUHU216HW,2013-01-18 23:32:00,
2013-01-18 18:37:00,43.6,29.3,30.32,East,90,0.0,0.2,57,0.00,,,0.00,WUHU216HW,2013-01-18 23:37:00,
2013-01-18 18:42:00,43.2,29.3,30.32,East,90,0.0,0.0,58,0.00,,,0.00,WUHU216HW,2013-01-18 23:42:00,
2013-01-18 18:47:00,42.8,29.0,30.32,East,90,0.0,0.0,58,0.00,,,0.00,WUHU216HW,2013-01-18 23:47:00,
2013-01-18 18:52:00,42.8,29.0,30.32,East,90,0.0,0.0,58,0.00,,,0.00,WUHU216HW,2013-01-18 23:52:00,
2013-01-18 18:57:00,42.7,29.3,30.32,East,90,0.0,0.2,59,0.00,,,0.00,WUHU216HW,2013-01-18 23:57:00,
2013-01-18 19:02:00,42.5,29.2,30.32,SSW,203,0.0,0.7,59,0.00,,,0.00,WUHU216HW,2013-01-19 00:02:00,
2013-01-18 19:07:00,42.3,29.4,30.32,SSW,203,0.0,0.7,60,0.00,,,0.00,WUHU216HW,2013-01-19 00:07:00,
2013-01-18 19:12:00,42.1,29.3,30.32,ESE,113,0.4,0.4,60,0.00,,,0.00,WUHU216HW,2013-01-19 00:12:00,
2013-01-18 19:17:00,41.9,29.1,30.32,ESE,113,0.0,0.4,60,0.00,,,0.00,WUHU216HW,2013-01-19 00:17:00,
2013-01-18 19:22:00,41.6,29.2,30.32,East,90,0.0,1.1,61,0.00,,,0.00,WUHU216HW,2013-01-19 00:22:00,
2013-01-18 19:27:00,41.2,28.8,30.33,East,90,0.0,1.1,61,0.00,,,0.00,WUHU216HW,2013-01-19 00:27:00,
2013-01-18 19:32:00,41.0,29.0,30.33,East,90,0.2,0.4,62,0.00,,,0.00,WUHU216HW,2013-01-19 00:32:00,
2013-01-18 19:37:00,40.7,28.6,30.33,East,90,0.2,0.4,62,0.00,,,0.00,WUHU216HW,2013-01-19 00:37:00,
2013-01-18 19:42:00,40.7,29.1,30.33,East,90,0.0,0.4,63,0.00,,,0.00,WUHU216HW,2013-01-19 00:42:00,
2013-01-18 19:47:00,40.3,28.7,30.33,East,90,0.0,0.4,63,0.00,,,0.00,WUHU216HW,2013-01-19 00:47:00,
2013-01-18 19:52:00,40.1,28.5,30.33,East,90,0.0,0.2,63,0.00,,,0.00,WUHU216HW,2013-01-19 00:52:00,
2013-01-18 19:57:00,40.0,28.4,30.33,East,90,0.0,0.2,63,0.00,,,0.00,WUHU216HW,2013-01-19 00:57:00,
2013-01-18 20:02:00,39.8,28.2,30.33,East,90,0.0,0.0,63,0.00,,,0.00,WUHU216HW,2013-01-19 01:02:00,
2013-01-18 20:07:00,39.6,28.4,30.33,ESE,113,0.0,0.2,64,0.00,,,0.00,WUHU216HW,2013-01-19 01:07:00,
2013-01-18 20:12:00,39.2,28.0,30.33,ESE,113,0.4,0.4,64,0.00,,,0.00,WUHU216HW,2013-01-19 01:12:00,
2013-01-18 20:17:00,39.2,28.4,30.33,SSE,158,0.0,0.4,65,0.00,,,0.00,WUHU216HW,2013-01-19 01:17:00,
2013-01-18 20:22:00,38.9,28.0,30.33,SSE,158,0.0,0.0,65,0.00,,,0.00,WUHU216HW,2013-01-19 01:22:00,
2013-01-18 20:27:00,38.5,28.1,30.33,SSE,158,0.0,0.0,66,0.00,,,0.00,WUHU216HW,2013-01-19 01:27:00,
2013-01-18 20:32:00,38.0,28.0,30.32,SSE,158,0.0,0.0,67,0.00,,,0.00,WUHU216HW,2013-01-19 01:32:00,
2013-01-18 20:37:00,37.8,27.8,30.33,SSE,158,0.0,0.0,67,0.00,,,0.00,WUHU216HW,2013-01-19 01:37:00,
2013-01-18 20:42:00,37.3,27.3,30.33,SSE,158,0.0,0.0,67,0.00,,,0.00,WUHU216HW,2013-01-19 01:42:00,
2013-01-18 20:47:00,36.7,27.2,30.33,SSE,158,0.0,0.0,68,0.00,,,0.00,WUHU216HW,2013-01-19 01:47:00,
2013-01-18 20:52:00,36.5,27.4,30.33,SSE,158,0.0,0.0,69,0.00,,,0.00,WUHU216HW,2013-01-19 01:52:00,
2013-01-18 20:57:00,36.4,27.5,30.33,SSE,158,0.0,0.0,70,0.00,,,0.00,WUHU216HW,2013-01-19 01:57:00,
2013-01-18 21:02:00,36.4,27.5,30.33,SSE,158,0.0,0.0,70,0.00,,,0.00,WUHU216HW,2013-01-19 02:02:00,
2013-01-18 21:07:00,36.2,27.7,30.33,SSE,158,0.0,0.0,71,0.00,,,0.00,WUHU216HW,2013-01-19 02:07:00,
2013-01-18 21:12:00,36.0,27.6,30.33,SSE,158,0.2,0.2,71,0.00,,,0.00,WUHU216HW,2013-01-19 02:12:00,
2013-01-18 21:17:00,35.6,27.5,30.33,SSE,158,0.0,0.2,72,0.00,,,0.00,WUHU216HW,2013-01-19 02:17:00,
2013-01-18 21:22:00,35.6,27.5,30.33,SSE,158,0.0,0.2,72,0.00,,,0.00,WUHU216HW,2013-01-19 02:22:00,
2013-01-18 21:27:00,35.1,26.9,30.33,SSE,158,0.0,0.0,72,0.00,,,0.00,WUHU216HW,2013-01-19 02:27:00,
2013-01-18 21:32:00,34.7,26.9,30.33,SSE,158,0.0,0.0,73,0.00,,,0.00,WUHU216HW,2013-01-19 02:32:00,
2013-01-18 21:37:00,34.6,26.7,30.33,SSE,158,0.0,0.0,73,0.00,,,0.00,WUHU216HW,2013-01-19 02:37:00,
2013-01-18 21:42:00,34.2,26.4,30.34,SSE,158,0.0,0.0,73,0.00,,,0.00,WUHU216HW,2013-01-19 02:42:00,
2013-01-18 21:47:00,33.7,26.2,30.34,SSE,158,0.0,0.0,74,0.00,,,0.00,WUHU216HW,2013-01-19 02:47:00,
2013-01-18 21:52:00,33.5,26.3,30.34,SSE,158,0.0,0.0,75,0.00,,,0.00,WUHU216HW,2013-01-19 02:52:00,
2013-01-18 21:57:00,33.1,26.3,30.34,SSE,158,0.0,0.0,76,0.00,,,0.00,WUHU216HW,2013-01-19 02:57:00,
2013-01-18 22:02:00,32.9,26.2,30.34,SSE,158,0.0,0.0,76,0.00,,,0.00,WUHU216HW,2013-01-19 03:02:00,
2013-01-18 22:07:00,32.8,26.0,30.34,SSE,158,0.0,0.0,76,0.00,,,0.00,WUHU216HW,2013-01-19 03:07:00,
2013-01-18 22:12:00,32.4,26.0,30.34,SSE,158,0.0,0.0,77,0.00,,,0.00,WUHU216HW,2013-01-19 03:12:00,
2013-01-18 22:17:00,32.2,25.8,30.34,SSE,158,0.0,0.0,77,0.00,,,0.00,WUHU216HW,2013-01-19 03:17:00,
2013-01-18 22:22:00,32.0,26.0,30.34,SSE,158,0.0,0.0,78,0.00,,,0.00,WUHU216HW,2013-01-19 03:22:00,
2013-01-18 22:27:00,31.7,25.7,30.33,SSE,158,0.0,0.0,78,0.00,,,0.00,WUHU216HW,2013-01-19 03:27:00,
2013-01-18 22:32:00,31.7,25.7,30.34,SSE,158,0.0,0.0,78,0.00,,,0.00,WUHU216HW,2013-01-19 03:32:00,
2013-01-18 22:37:00,31.5,25.5,30.33,SSE,158,0.0,0.0,78,0.00,,,0.00,WUHU216HW,2013-01-19 03:37:00,
2013-01-18 22:42:00,31.3,25.3,30.34,SSE,158,0.0,0.0,78,0.00,,,0.00,WUHU216HW,2013-01-19 03:42:00,
2013-01-18 22:47:00,31.1,25.4,30.33,SSE,158,0.0,0.0,79,0.00,,,0.00,WUHU216HW,2013-01-19 03:47:00,
2013-01-18 22:52:00,31.0,25.2,30.33,SSE,158,0.0,0.0,79,0.00,,,0.00,WUHU216HW,2013-01-19 03:52:00,
2013-01-18 22:57:00,30.8,25.0,30.33,SSE,158,0.0,0.0,79,0.00,,,0.00,WUHU216HW,2013-01-19 03:57:00,
2013-01-18 23:02:00,30.6,25.2,30.33,SSE,158,0.0,0.0,80,0.00,,,0.00,WUHU216HW,2013-01-19 04:02:00,
2013-01-18 23:07:00,30.6,25.2,30.33,SSE,158,0.0,0.0,80,0.00,,,0.00,WUHU216HW,2013-01-19 04:07:00,
2013-01-18 23:12:00,30.4,25.3,30.33,SSE,158,0.0,0.0,81,0.00,,,0.00,WUHU216HW,2013-01-19 04:12:00,
2013-01-18 23:17:00,30.2,25.1,30.33,SSE,158,0.0,0.0,81,0.00,,,0.00,WUHU216HW,2013-01-19 04:17:00,
2013-01-18 23:22:00,30.2,25.1,30.33,SSE,158,0.0,0.0,81,0.00,,,0.00,WUHU216HW,2013-01-19 04:22:00,
2013-01-18 23:27:00,30.1,25.2,30.33,SSE,158,0.0,0.0,82,0.00,,,0.00,WUHU216HW,2013-01-19 04:27:00,
2013-01-18 23:32:00,30.1,25.2,30.33,SSE,158,0.2,0.2,82,0.00,,,0.00,WUHU216HW,2013-01-19 04:32:00,
2013-01-18 23:37:00,29.9,25.4,30.33,SSE,158,0.0,0.2,83,0.00,,,0.00,WUHU216HW,2013-01-19 04:37:00,
2013-01-18 23:42:00,29.9,25.4,30.33,SSE,158,0.2,0.4,83,0.00,,,0.00,WUHU216HW,2013-01-19 04:42:00,
2013-01-18 23:47:00,29.9,25.4,30.33,SSE,158,0.0,0.4,83,0.00,,,0.00,WUHU216HW,2013-01-19 04:47:00,
2013-01-18 23:52:00,29.7,25.2,30.33,SSE,158,0.0,0.2,83,0.00,,,0.00,WUHU216HW,2013-01-19 04:52:00,
2013-01-18 23:57:00,29.5,25.0,30.32,SSE,158,0.0,0.2,83,0.00,,,0.00,WUHU216HW,2013-01-19 04:57:00,